This is the latest recevied weather packets stored in our database for station/object KE0FIN. If no packets are shown the sender has not sent any weather packets the latest 10 day(s).
| Time | Temp. | Humidity | Pressure | Rain* | Wind** | Luminosity | Snow |
|---|---|---|---|---|---|---|---|
| 1778001449 | 9.44° C | 83% | 1063.7 hPa | 0 mm | - | 135 W/m² | - |
| 1778001147 | 9.44° C | 82% | 1063.8 hPa | 0 mm | - | 169 W/m² | - |
| 1778000843 | 9.44° C | 82% | 1063.6 hPa | 0 mm | - | 128 W/m² | - |
| 1778000540 | 8.89° C | 80% | 1063.6 hPa | 0 mm | - | 153 W/m² | - |
| 1778000235 | 8.89° C | 81% | 1063.5 hPa | 0 mm | - | 112 W/m² | - |
| 1777999932 | 8.89° C | 80% | 1063.8 hPa | 0 mm | - | 109 W/m² | - |
| 1777999627 | 9.44° C | 79% | 1064.1 hPa | 0 mm | - | 84 W/m² | - |
| 1777999325 | 10° C | 76% | 1063.9 hPa | 0 mm | - | 82 W/m² | - |
| 1777999023 | 10° C | 71% | 1063.9 hPa | 0 mm | - | 90 W/m² | - |
| 1777998721 | 10.56° C | 68% | 1063.6 hPa | 0 mm | - | 85 W/m² | - |
| 1777998418 | 10.56° C | 69% | 1063.7 hPa | 0 mm | - | 67 W/m² | - |
| 1777998115 | 11.11° C | 64% | 1063.7 hPa | 0 mm | - | 61 W/m² | - |
| 1777997812 | 11.11° C | 64% | 1063.5 hPa | 0 mm | - | 86 W/m² | - |
| 1777997509 | 11.11° C | 65% | 1063.7 hPa | 0 mm | - | 58 W/m² | - |
| 1777997207 | 11.11° C | 65% | 1063.3 hPa | 0 mm | - | 56 W/m² | - |
| 1777996904 | 11.11° C | 65% | 1063.6 hPa | 0 mm | - | 71 W/m² | - |
| 1777996600 | 11.11° C | 64% | 1063.7 hPa | 0 mm | - | 57 W/m² | - |
| 1777996296 | 11.11° C | 64% | 1063.3 hPa | 0 mm | - | 81 W/m² | - |
| 1777995993 | 11.11° C | 65% | 1063.2 hPa | 0 mm | - | 69 W/m² | - |
| 1777995689 | 11.67° C | 67% | 1062.8 hPa | 0 mm | - | 71 W/m² | - |
| 1777995386 | 11.67° C | 66% | 1062.8 hPa | 0 mm | - | 65 W/m² | - |
| 1777995084 | 11.11° C | 66% | 1062.6 hPa | 0 mm | - | 110 W/m² | - |
| 1777994780 | 11.11° C | 64% | 1062.5 hPa | 0 mm | - | 92 W/m² | - |
| 1777994476 | 11.11° C | 64% | 1062.6 hPa | 0 mm | - | 77 W/m² | - |
| 1777994171 | 11.11° C | 63% | 1062.5 hPa | 0 mm | - | 75 W/m² | - |
* Rain latest hour (hover to see other rain measurements)
** Current wind speed in m/s (hover to see current wind gust speed)